HS3MXC-1 Weather Reports


Display with metric or nautical units.
time (UTC)temp
F
wind
direction
speed
MPH
gust
MPH
rain 1hr
in
rain 24hr
in
rain mn
in
humidity
%
barometer
mb
20260509135100 91 0 0.0 0.0 0.00 0.00 0.00 65 995.8
20260509134553 91 0 0.0 0.0 0.00 0.00 0.00 65 995.8
20260509134047 91 0 0.0 0.0 0.00 0.00 0.00 65 995.8
20260509133540 91 0 0.0 0.0 0.00 0.00 0.00 65 995.8
20260509133034 91 0 0.0 0.0 0.00 0.00 0.00 65 995.7
20260509132527 91 0 0.0 0.0 0.00 0.00 0.00 65 995.7
20260509132021 91 0 0.0 0.0 0.00 0.00 0.00 65 995.5
20260509131514 91 0 0.0 0.0 0.00 0.00 0.00 65 995.5
20260509131008 91 0 0.0 0.0 0.00 0.00 0.00 65 995.5
20260509130501 91 0 0.0 0.0 0.00 0.00 0.00 65 995.4
20260509125954 91 0 0.0 0.0 0.00 0.00 0.00 65 995.4
20260509125448 91 0 0.0 0.0 0.00 0.00 0.00 64 995.3
20260509124941 91 0 0.0 0.0 0.00 0.00 0.00 64 995.3
20260509124433 92 0 0.0 0.0 0.00 0.00 0.00 64 995.1
20260509123927 91 0 0.0 0.0 0.00 0.00 0.00 64 995.1
20260509123420 91 0 0.0 0.0 0.00 0.00 0.00 65 995.0
20260509122913 92 0 0.0 0.0 0.00 0.00 0.00 63 995.0
20260509122407 92 0 0.0 0.0 0.00 0.00 0.00 63 994.9
20260509121900 92 0 0.0 0.0 0.00 0.00 0.00 62 994.8
20260509121354 92 0 0.0 0.0 0.00 0.00 0.00 62 994.7
20260509120847 92 0 0.0 0.0 0.00 0.00 0.00 62 994.6
20260509120341 92 0 0.0 0.0 0.00 0.00 0.00 62 994.5
20260509115834 92 0 0.0 0.0 0.00 0.00 0.00 62 994.3
20260509115328 92 0 0.0 0.0 0.00 0.00 0.00 62 994.2
20260509114821 92 0 0.0 0.0 0.00 0.00 0.00 62 994.2
20260509114315 92 0 0.0 0.0 0.00 0.00 0.00 62 994.2
20260509113808 92 0 0.0 0.0 0.00 0.00 0.00 62 994.1
20260509113301 92 0 0.0 0.0 0.00 0.00 0.00 62 994.2
20260509112754 92 0 0.0 0.0 0.00 0.00 0.00 62 994.2
20260509112248 92 0 0.0 0.0 0.00 0.00 0.00 62 994.1
20260509111742 92 0 0.0 0.0 0.00 0.00 0.00 62 993.9
20260509110220 92 0 0.0 0.0 0.00 0.00 0.00 61 993.7
20260509105714 92 0 0.0 0.0 0.00 0.00 0.00 61 993.7
20260509105208 92 0 0.0 0.0 0.00 0.00 0.00 61 993.5
20260509104700 92 0 0.0 0.0 0.00 0.00 0.00 61 993.5
20260509104154 92 0 0.0 0.0 0.00 0.00 0.00 61 993.4
20260509103647 92 0 0.0 0.0 0.00 0.00 0.00 60 993.3
20260509103140 92 0 0.0 0.0 0.00 0.00 0.00 60 993.2
20260509102633 92 0 0.0 0.0 0.00 0.00 0.00 60 993.2
20260509101621 93 0 0.0 0.0 0.00 0.00 0.00 59 993.2
20260509100602 93 0 0.0 0.0 0.00 0.00 0.00 51 993.0
20260509100055 93 0 0.0 0.0 0.00 0.00 0.00 52 993.0
20260509095042 93 0 0.0 0.0 0.00 0.00 0.00 52 993.1
20260509094535 93 0 0.0 0.0 0.00 0.00 0.00 52 993.1
20260509094028 93 0 0.0 0.0 0.00 0.00 0.00 52 993.2
20260509093521 93 0 0.0 0.0 0.00 0.00 0.00 52 993.1
20260509093014 94 0 0.0 0.0 0.00 0.00 0.00 53 993.1
20260509092508 94 0 0.0 0.0 0.00 0.00 0.00 53 993.2
20260509092001 94 0 0.0 0.0 0.00 0.00 0.00 53 993.3
20260509090948 93 0 0.0 0.0 0.00 0.00 0.00 53 993.5
20260509085935 93 0 0.0 0.0 0.00 0.00 0.00 54 993.4
20260509085428 93 0 0.0 0.0 0.00 0.00 0.00 54 993.3
20260509084922 93 0 0.0 0.0 0.00 0.00 0.00 54 993.4
20260509084415 93 0 0.0 0.0 0.00 0.00 0.00 54 993.4
20260509083908 93 0 0.0 0.0 0.00 0.00 0.00 54 993.4
20260509083402 93 0 0.0 0.0 0.00 0.00 0.00 53 993.4
20260509082855 93 0 0.0 0.0 0.00 0.00 0.00 53 993.4
20260509081842 93 0 0.0 0.0 0.00 0.00 0.00 56 993.5
20260509081335 93 0 0.0 0.0 0.00 0.00 0.00 56 993.6
20260509080829 93 0 0.0 0.0 0.00 0.00 0.00 56 993.8
20260509080323 92 0 0.0 0.0 0.00 0.00 0.00 57 993.8
20260509075816 93 0 0.0 0.0 0.00 0.00 0.00 56 994.1
20260509075310 93 0 0.0 0.0 0.00 0.00 0.00 56 994.3
20260509074804 93 0 0.0 0.0 0.00 0.00 0.00 55 994.4
20260509074257 93 0 0.0 0.0 0.00 0.00 0.00 56 994.5
20260509073751 93 0 0.0 0.0 0.00 0.00 0.00 56 994.6
20260509073245 93 0 0.0 0.0 0.00 0.00 0.00 58 994.7
20260509072738 93 0 0.0 0.0 0.00 0.00 0.00 57 994.8
20260509072232 93 0 0.0 0.0 0.00 0.00 0.00 58 994.9
20260509071726 92 0 0.0 0.0 0.00 0.00 0.00 57 994.9
20260509071219 92 0 0.0 0.0 0.00 0.00 0.00 58 995.0
20260509070713 92 0 0.0 0.0 0.00 0.00 0.00 57 995.1
20260509065658 92 0 0.0 0.0 0.00 0.00 0.00 60 995.2
20260509064645 92 0 0.0 0.0 0.00 0.00 0.00 60 995.4
20260509064138 92 0 0.0 0.0 0.00 0.00 0.00 59 995.5
20260509063630 92 0 0.0 0.0 0.00 0.00 0.00 60 995.6
20260509063123 92 0 0.0 0.0 0.00 0.00 0.00 60 995.7
20260509062617 92 0 0.0 0.0 0.00 0.00 0.00 61 995.7
20260509061057 92 0 0.0 0.0 0.00 0.00 0.00 60 996.0
20260509060550 92 0 0.0 0.0 0.00 0.00 0.00 59 996.2
20260509060044 92 0 0.0 0.0 0.00 0.00 0.00 60 996.3
20260509055537 92 0 0.0 0.0 0.00 0.00 0.00 60 996.3
20260509054015 92 0 0.0 0.0 0.00 0.00 0.00 60 996.7
20260509053509 91 0 0.0 0.0 0.00 0.00 0.00 61 996.8
20260509053001 91 0 0.0 0.0 0.00 0.00 0.00 60 996.8
20260509052455 91 0 0.0 0.0 0.00 0.00 0.00 61 997.0
20260509051948 91 0 0.0 0.0 0.00 0.00 0.00 61 997.1
20260509051442 91 0 0.0 0.0 0.00 0.00 0.00 61 997.2
20260509050429 91 0 0.0 0.0 0.00 0.00 0.00 61 997.4
20260509045923 90 0 0.0 0.0 0.00 0.00 0.00 62 997.5
20260509045415 90 0 0.0 0.0 0.00 0.00 0.00 61 997.6
20260509044909 90 0 0.0 0.0 0.00 0.00 0.00 63 997.6
20260509044403 90 0 0.0 0.0 0.00 0.00 0.00 64 997.7
20260509043856 89 0 0.0 0.0 0.00 0.00 0.00 64 997.8
20260509043350 89 0 0.0 0.0 0.00 0.00 0.00 65 997.9
20260509042844 89 0 0.0 0.0 0.00 0.00 0.00 65 997.9
20260509042338 89 0 0.0 0.0 0.00 0.00 0.00 65 998.0
20260509041832 89 0 0.0 0.0 0.00 0.00 0.00 65 998.0
20260509041326 89 0 0.0 0.0 0.00 0.00 0.00 64 998.0
20260509040819 89 0 0.0 0.0 0.00 0.00 0.00 65 998.0
20260509040313 89 0 0.0 0.0 0.00 0.00 0.00 66 998.1
20260509035807 88 0 0.0 0.0 0.00 0.00 0.00 67 998.2
20260509035300 88 0 0.0 0.0 0.00 0.00 0.00 67 998.2
20260509034247 87 0 0.0 0.0 0.00 0.00 0.00 67 998.3
20260509033741 87 0 0.0 0.0 0.00 0.00 0.00 67 998.4
20260509033235 87 0 0.0 0.0 0.00 0.00 0.00 67 998.5
20260509032727 87 0 0.0 0.0 0.00 0.00 0.00 67 998.6
20260509032222 87 0 0.0 0.0 0.00 0.00 0.00 67 998.5
20260509031715 87 0 0.0 0.0 0.00 0.00 0.00 67 998.6
20260509031209 87 0 0.0 0.0 0.00 0.00 0.00 68 998.6
20260509030701 87 0 0.0 0.0 0.00 0.00 0.00 67 998.7
20260509025649 87 0 0.0 0.0 0.00 0.00 0.00 67 998.7
20260509024637 87 0 0.0 0.0 0.00 0.00 0.00 66 998.7
20260509024131 87 0 0.0 0.0 0.00 0.00 0.00 67 998.7
20260509022609 87 0 0.0 0.0 0.00 0.00 0.00 66 998.8
20260509022103 86 0 0.0 0.0 0.00 0.00 0.00 66 998.8
20260509021556 86 0 0.0 0.0 0.00 0.00 0.00 67 998.9
20260509021050 86 0 0.0 0.0 0.00 0.00 0.00 67 998.8
20260509020544 86 0 0.0 0.0 0.00 0.00 0.00 67 998.8
20260509015531 86 0 0.0 0.0 0.00 0.00 0.00 67 998.8
20260509015024 85 0 0.0 0.0 0.00 0.00 0.00 67 998.9
20260509014519 85 0 0.0 0.0 0.00 0.00 0.00 68 998.8
20260509014012 85 0 0.0 0.0 0.00 0.00 0.00 68 998.8
20260509013505 85 0 0.0 0.0 0.00 0.00 0.00 68 998.8
20260509012959 85 0 0.0 0.0 0.00 0.00 0.00 68 998.7
20260509012453 85 0 0.0 0.0 0.00 0.00 0.00 68 998.7
20260509011946 85 0 0.0 0.0 0.00 0.00 0.00 68 998.8
20260509011440 85 0 0.0 0.0 0.00 0.00 0.00 67 998.7
20260509010934 86 0 0.0 0.0 0.00 0.00 0.00 67 998.7
20260509010427 85 0 0.0 0.0 0.00 0.00 0.00 67 998.7
20260509005921 85 0 0.0 0.0 0.00 0.00 0.00 67 998.6
20260509005414 85 0 0.0 0.0 0.00 0.00 0.00 67 998.6
20260509004907 85 0 0.0 0.0 0.00 0.00 0.00 68 998.6
20260509004400 85 0 0.0 0.0 0.00 0.00 0.00 68 998.5
20260509003854 85 0 0.0 0.0 0.00 0.00 0.00 68 998.5
20260509003347 85 0 0.0 0.0 0.00 0.00 0.00 68 998.4
20260509002840 85 0 0.0 0.0 0.00 0.00 0.00 68 998.4
20260509002334 85 0 0.0 0.0 0.00 0.00 0.00 68 998.5
20260509001827 85 0 0.0 0.0 0.00 0.00 0.00 68 998.4
20260509001321 85 0 0.0 0.0 0.00 0.00 0.00 68 998.2
20260509000815 85 0 0.0 0.0 0.00 0.00 0.00 68 998.1
20260509000310 85 0 0.0 0.0 0.00 0.00 0.00 68 998.1
20260508235803 85 0 0.0 0.0 0.00 0.00 0.00 68 998.1
20260508235256 85 0 0.0 0.0 0.00 0.00 0.00 69 998.0
20260508234750 85 0 0.0 0.0 0.00 0.00 0.00 69 998.1
20260508234245 85 0 0.0 0.0 0.00 0.00 0.00 69 998.1
20260508233738 85 0 0.0 0.0 0.00 0.00 0.00 69 997.9
20260508233232 85 0 0.0 0.0 0.00 0.00 0.00 69 997.9
20260508232726 85 0 0.0 0.0 0.00 0.00 0.00 69 997.8
20260508231712 85 0 0.0 0.0 0.00 0.00 0.00 68 997.6
20260508231206 85 0 0.0 0.0 0.00 0.00 0.00 69 997.6
20260508230700 85 0 0.0 0.0 0.00 0.00 0.00 68 997.4
20260508230153 85 0 0.0 0.0 0.00 0.00 0.00 68 997.5
20260508225646 85 0 0.0 0.0 0.00 0.00 0.00 68 997.3
20260508225139 85 0 0.0 0.0 0.00 0.00 0.00 68 997.2
20260508224127 85 0 0.0 0.0 0.00 0.00 0.00 68 997.1
20260508223620 85 0 0.0 0.0 0.00 0.00 0.00 68 997.1
20260508223113 85 0 0.0 0.0 0.00 0.00 0.00 68 997.1
20260508222607 85 0 0.0 0.0 0.00 0.00 0.00 68 997.0
20260508222059 85 0 0.0 0.0 0.00 0.00 0.00 68 997.0
20260508221552 86 0 0.0 0.0 0.00 0.00 0.00 68 997.0
20260508221045 86 0 0.0 0.0 0.00 0.00 0.00 68 997.0
20260508220539 86 0 0.0 0.0 0.00 0.00 0.00 68 996.9
20260508220033 86 0 0.0 0.0 0.00 0.00 0.00 68 996.9
20260508215526 86 0 0.0 0.0 0.00 0.00 0.00 68 997.0
20260508215019 86 0 0.0 0.0 0.00 0.00 0.00 68 996.9
20260508214512 86 0 0.0 0.0 0.00 0.00 0.00 68 996.9
20260508214003 86 0 0.0 0.0 0.00 0.00 0.00 68 996.7
20260508213456 86 0 0.0 0.0 0.00 0.00 0.00 68 996.6
20260508212948 86 0 0.0 0.0 0.00 0.00 0.00 68 996.5
20260508212441 86 0 0.0 0.0 0.00 0.00 0.00 68 996.3
20260508211934 86 0 0.0 0.0 0.00 0.00 0.00 68 996.2
20260508211428 86 0 0.0 0.0 0.00 0.00 0.00 68 996.2
20260508210922 86 0 0.0 0.0 0.00 0.00 0.00 68 996.2
20260508210416 86 0 0.0 0.0 0.00 0.00 0.00 68 996.0
20260508205909 86 0 0.0 0.0 0.00 0.00 0.00 68 996.1
20260508205402 86 0 0.0 0.0 0.00 0.00 0.00 68 996.1
20260508204855 86 0 0.0 0.0 0.00 0.00 0.00 68 996.1
20260508204349 86 0 0.0 0.0 0.00 0.00 0.00 68 996.0
20260508203842 86 0 0.0 0.0 0.00 0.00 0.00 68 996.0
20260508203335 86 0 0.0 0.0 0.00 0.00 0.00 68 996.0
20260508202829 86 0 0.0 0.0 0.00 0.00 0.00 68 996.0
20260508202322 86 0 0.0 0.0 0.00 0.00 0.00 68 996.1
20260508201815 86 0 0.0 0.0 0.00 0.00 0.00 68 996.1
20260508201309 86 0 0.0 0.0 0.00 0.00 0.00 68 996.1
20260508200802 86 0 0.0 0.0 0.00 0.00 0.00 68 996.0
20260508200253 86 0 0.0 0.0 0.00 0.00 0.00 68 996.0
20260508195746 86 0 0.0 0.0 0.00 0.00 0.00 67 996.0
20260508195239 86 0 0.0 0.0 0.00 0.00 0.00 68 996.1
20260508194732 86 0 0.0 0.0 0.00 0.00 0.00 68 996.1
20260508194226 86 0 0.0 0.0 0.00 0.00 0.00 67 996.0
20260508193719 87 0 0.0 0.0 0.00 0.00 0.00 67 996.0
20260508193212 86 0 0.0 0.0 0.00 0.00 0.00 68 995.9
20260508192706 87 0 0.0 0.0 0.00 0.00 0.00 67 995.9
20260508192200 87 0 0.0 0.0 0.00 0.00 0.00 67 995.9
20260508191651 87 0 0.0 0.0 0.00 0.00 0.00 68 996.0
20260508191144 87 0 0.0 0.0 0.00 0.00 0.00 67 996.0
20260508190637 87 0 0.0 0.0 0.00 0.00 0.00 67 996.0
20260508190130 87 0 0.0 0.0 0.00 0.00 0.00 68 996.0
20260508185623 87 0 0.0 0.0 0.00 0.00 0.00 67 996.1
20260508185115 87 0 0.0 0.0 0.00 0.00 0.00 67 996.1
20260508184606 87 0 0.0 0.0 0.00 0.00 0.00 67 996.3
20260508184055 87 0 0.0 0.0 0.00 0.00 0.00 67 996.3
20260508183548 87 0 0.0 0.0 0.00 0.00 0.00 67 996.3
20260508183041 87 0 0.0 0.0 0.00 0.00 0.00 67 996.4
20260508182534 87 0 0.0 0.0 0.00 0.00 0.00 67 996.4
20260508182028 87 0 0.0 0.0 0.00 0.00 0.00 67 996.5
20260508181521 87 0 0.0 0.0 0.00 0.00 0.00 67 996.5
20260508181015 87 0 0.0 0.0 0.00 0.00 0.00 67 996.6
20260508180508 87 0 0.0 0.0 0.00 0.00 0.00 67 996.5
20260508180002 87 0 0.0 0.0 0.00 0.00 0.00 67 996.6
20260508175455 87 0 0.0 0.0 0.00 0.00 0.00 67 996.6
20260508174949 87 0 0.0 0.0 0.00 0.00 0.00 67 996.5
20260508174440 87 0 0.0 0.0 0.00 0.00 0.00 67 996.4
20260508173934 87 0 0.0 0.0 0.00 0.00 0.00 67 996.4
20260508173424 87 0 0.0 0.0 0.00 0.00 0.00 67 996.4
20260508172918 87 0 0.0 0.0 0.00 0.00 0.00 67 996.4
20260508172409 87 0 0.0 0.0 0.00 0.00 0.00 67 996.5
20260508171901 87 0 0.0 0.0 0.00 0.00 0.00 67 996.5
20260508171352 88 0 0.0 0.0 0.00 0.00 0.00 67 996.6
20260508170843 87 0 0.0 0.0 0.00 0.00 0.00 67 996.6
20260508170335 87 0 0.0 0.0 0.00 0.00 0.00 67 996.7
20260508165827 88 0 0.0 0.0 0.00 0.00 0.00 67 996.8
20260508165319 88 0 0.0 0.0 0.00 0.00 0.00 67 996.8
20260508164811 88 0 0.0 0.0 0.00 0.00 0.00 67 996.9
20260508164303 88 0 0.0 0.0 0.00 0.00 0.00 67 996.9
20260508163757 87 0 0.0 0.0 0.00 0.00 0.00 67 997.0
20260508163250 88 0 0.0 0.0 0.00 0.00 0.00 67 997.0
20260508162743 88 0 0.0 0.0 0.00 0.00 0.00 67 997.0
20260508162235 88 0 0.0 0.0 0.00 0.00 0.00 67 997.1
20260508161727 88 0 0.0 0.0 0.00 0.00 0.00 67 996.9
20260508161219 88 0 0.0 0.0 0.00 0.00 0.00 67 997.0
20260508160712 88 0 0.0 0.0 0.00 0.00 0.00 67 997.0
20260508160206 88 0 0.0 0.0 0.00 0.00 0.00 67 997.0
20260508155659 88 0 0.0 0.0 0.00 0.00 0.00 67 997.0
20260508155152 88 0 0.0 0.0 0.00 0.00 0.00 68 997.1
20260508154644 88 0 0.0 0.0 0.00 0.00 0.00 68 997.0
20260508154136 88 0 0.0 0.0 0.00 0.00 0.00 67 997.0
20260508152607 88 0 0.0 0.0 0.00 0.00 0.00 67 997.0
20260508152101 88 0 0.0 0.0 0.00 0.00 0.00 68 996.9
20260508151554 88 0 0.0 0.0 0.00 0.00 0.00 68 996.9
20260508150539 88 0 0.0 0.0 0.00 0.00 0.00 67 996.9
20260508150032 88 0 0.0 0.0 0.00 0.00 0.00 68 996.9
20260508145525 88 0 0.0 0.0 0.00 0.00 0.00 68 996.9
20260508144512 89 0 0.0 0.0 0.00 0.00 0.00 67 996.7
20260508143458 89 0 0.0 0.0 0.00 0.00 0.00 68 996.7
20260508142951 89 0 0.0 0.0 0.00 0.00 0.00 68 996.7
20260508142444 89 0 0.0 0.0 0.00 0.00 0.00 68 996.7
20260508141937 89 0 0.0 0.0 0.00 0.00 0.00 68 996.8
20260508141430 89 0 0.0 0.0 0.00 0.00 0.00 68 996.7
20260508140923 89 0 0.0 0.0 0.00 0.00 0.00 68 996.6
20260508140417 89 0 0.0 0.0 0.00 0.00 0.00 68 996.5
20260508135910 89 0 0.0 0.0 0.00 0.00 0.00 68 996.4
20260508135403 89 0 0.0 0.0 0.00 0.00 0.00 68 996.4